Иннокентьевский

Россия / Хабаровский край     48°36′15″N   140°10′05″E
темп.,
°C
ветер,
м/с
пор.,
м/с
влажн.,
%
обл.,
%
осадки,
мм/ч
давл.,
гПа
погр.,
м
14 мая, пт
пт1401:00+3ююз4599100 0.1 100967
04:00+3ю459951 0.1 100965
07:00+4ю239759 0.1 101059
10:00+5юв229078 0.2 1010103
13:00+6всв219581 1.8 1011124
16:00+6всв228974 2.2 1010141
19:00+5ссв119575 0.3 101257
22:00+4с119876 0.3 101412
15 мая, сб
сб1501:00+4св2298100 0.0 101411
04:00+3ююз2298100 0.0 101415
07:00+3юв3498100 0.0 101284
10:00+3ююв5898100 0.0 1010152
13:00+5ю112398100 3.6 1006500
16:00+4ю122198100 9.8 1003518
19:00+4ююз91498100 0.8 1001238
22:00+3ююз5699100 0.9 100066
16 мая, вс
вс1601:00+5ююз4596100 0.0 99954
04:00+6юз61083100 0.0 998178
07:00+7юз587726 0.0 999391
10:00+9юз4765100 0.0 999549
13:00+10зюз376585 0.0 1000545
16:00+9ююз346698 0.0 1000106
19:00+7ю228065 0.2 100115
22:00+8юз33730 0.3 100216
17 мая, пн
пн1701:00+8зюз55680 0.0 100221
04:00+8зюз44665 0.0 100116
07:00+9юз44680 0.0 100034
10:00+11ююз57550 0.0 999502
13:00+11ююз685675 0.0 998712
16:00+9ююз9166496 0.0 998194
19:00+9ююз797058 0.0 99779
22:00+10зюз34650 0.0 99915
18 мая, вт
вт1801:00+11з4462100 0.0 99916
04:00+7ссз45827 0.0 100131
07:00+7ссв3480100 0.0 100256
10:00+7всв56779 0.0 1004192
13:00+4с448861 0.0 1006143
16:00+5св128166 0.1 1005182
19:00+6ююз457826 0.0 100585
22:00+5ю45805 0.0 100643